Regional Weather Roundup
Issued by NWS

Home | Current Version | Previous Version | Text Only | Print | Product List | Glossary Off
Versions: 1 2 3 4 5 6 7 8 9 10 11 12 13 14 15 16 17 18 19 20 21 22 23 24 25 26 27 28 29 30 31 32 33 34 35 36 37 38 39 40 41 42 43 44 45 46 47 48 49 50

000
ASUS43 KLMK 260502
RWRKY
KENTUCKY REGIONAL WEATHER ROUNDUP
NATIONAL WEATHER SERVICE LOUISVILLE KY
1200 AM EST SUN FEB 26 2017

NOTE "FAIR" INDICATES FEW OR NO CLOUDS BELOW 12,000 FEET
WITH NO SIGNIFICANT WEATHER AND/OR OBSTRUCTIONS TO VISIBILITY.

KYZ001>023-026-027-061>063-070>075-260600-
WESTERN AND SOUTH CENTRAL KENTUCKY

CITY           SKY/WX    TMP DP  RH WIND       PRES   REMARKS
PADUCAH        CLEAR     28  19  69 CALM      30.16R
HENDERSON      CLEAR     27  16  63 W3        30.15S
OWENSBORO      CLEAR     30  21  69 W3        30.15S
HOPKINSVILLE   CLEAR     29  21  71 N5        30.14S WCI  24
BOWLING GREEN  CLEAR     32  19  58 CALM      30.15S
GLASGOW        NOT AVBL
$$

KYZ024-025-028>034-038-045-046-053-260600-
NORTH CENTRAL KENTUCKY

CITY           SKY/WX    TMP DP  RH WIND       PRES   REMARKS
LOUISVILLE/SDF CLEAR     31  16  54 W6        30.12S WCI  25
LOUISVILLE/LOU CLEAR     32  17  54 SW3       30.12S
FORT KNOX      CLEAR     27  18  69 S3        30.10R
$$

KYZ035>037-039>044-047>052-055>060-089>105-260600-
NORTHEAST KENTUCKY

CITY           SKY/WX    TMP DP  RH WIND       PRES   REMARKS
LEXINGTON      CLEAR     29  17  61 SW3       30.10S
COVINGTON      CLEAR     28  17  63 SW6       30.06R WCI  22
FRANKFORT      CLEAR     28  17  63 SW3       30.09S
$$

KYZ054-064>069-076>088-106>120-260600-
SOUTHEAST KENTUCKY

CITY           SKY/WX    TMP DP  RH WIND       PRES   REMARKS
JACKSON        CLOUDY    30  19  63 SW3       30.08S
LONDON         CLEAR     28  20  71 CALM      30.11R
SOMERSET       CLEAR     28  23  80 CALM      30.14S
MIDDLESBORO    CLEAR     31  22  69 CALM      30.13R
MONTICELLO     CLEAR     21  18  88 NW8       30.15S WCI  11
$$





USA.gov is the U.S. government's official web portal to all federal, state and local government web resources and services.